Weather History for KORE - April, 2014

Change the Weather History Date:

Wednesday, April 23, 2014

  Actual Average Record
Temperature  
Mean Temperature 48 °F -  
Max Temperature 53 °F 58 °F 86 °F (2007)
Min Temperature 44 °F 31 °F 30 °F (1997)
Degree Days  
Heating Degree Days 17    
Moisture  
Dew Point 40 °F    
Average Humidity 78    
Maximum Humidity 100    
Minimum Humidity 45    
Precipitation  
Precipitation 0.07 in - - ()
Sea Level Pressure  
Sea Level Pressure 29.52 in    
Wind  
Wind Speed 7 mph (NW)    
Max Wind Speed 25 mph    
Max Gust Speed 32 mph    
Visibility 7 miles    
Events Fog , Rain    
Averages and records for this station are not official NWS values.
T = Trace of Precipitation, MM = Missing Value Source: NWS Daily Summary

Daily Weather History Graph

Daily Weather History Graph

Search for Another Location

Airport or City:

Trip Planner

Search our weather history database for the weather conditions in past years. The results will help you decide how hot, cold, wet, or windy it might be!

Date:

Astronomy

Apr. 23, 2014 Rise Set
Actual Time 5:55 AM EDT 7:40 PM EDT
Civil Twilight 5:25 AM EDT 8:10 PM EDT
Nautical Twilight 4:49 AM EDT 8:46 PM EDT
Astronomical Twilight 4:10 AM EDT 9:26 PM EDT
Moon 2:33 AM EDT 1:37 PM EDT
Length of Visible Light 14h 44m
Length of Day
13h 44m
Waning Crescent, 35% of the Moon is Illuminated
Apr 23
Waning Crescent
Apr 29
New
May 6
First Quarter
May 14
Full
May 21
Last Quarter

Hourly Weather History & Observations

Time (EDT) Temp. Windchill Dew Point Humidity Pressure Visibility Wind Dir Wind Speed Gust Speed Precip Events Conditions
12:52 AM 48.9 °F - 48.0 °F 97% 29.48 in 3.0 mi SSW 6.9 mph - N/A   Clear
1:17 AM 48.9 °F - 46.9 °F 93% 29.47 in 2.5 mi Calm Calm - N/A   Partly Cloudy
1:26 AM 48.9 °F - 46.9 °F 93% 29.47 in 1.2 mi Calm Calm - N/A   Partly Cloudy
1:32 AM 48.0 °F - 46.9 °F 96% 29.47 in 0.8 mi Calm Calm - N/A   Scattered Clouds
2:17 AM 48.0 °F - 46.0 °F 93% 29.47 in 0.2 mi Calm Calm - N/A Fog Fog
2:24 AM 46.9 °F - 46.9 °F 100% 29.47 in 0.2 mi Calm Calm - N/A Fog Fog
2:52 AM 46.9 °F - 46.0 °F 97% 29.47 in 0.5 mi Calm Calm - N/A Fog Fog
3:06 AM 48.0 °F - 46.9 °F 96% 29.46 in 0.5 mi Calm Calm - N/A Fog Fog
3:20 AM 46.9 °F - 46.0 °F 97% 29.46 in 1.2 mi East 3.5 mph - N/A   Overcast
3:25 AM 48.0 °F - 46.0 °F 93% 29.46 in 2.0 mi East 3.5 mph - N/A   Overcast
3:34 AM 48.9 °F - 48.0 °F 97% 29.46 in 8.0 mi WNW 6.9 mph - N/A   Overcast
3:52 AM 48.9 °F - 46.0 °F 90% 29.46 in 10.0 mi WNW 5.8 mph - N/A   Overcast
4:52 AM 48.9 °F - 43.0 °F 80% 29.46 in 10.0 mi WNW 10.4 mph - N/A   Overcast
6:52 AM 46.0 °F 43.9 °F 42.1 °F 86% 29.49 in 6.0 mi NNW 4.6 mph - 0.02 in Rain Light Rain
7:52 AM 46.0 °F 42.5 °F 43.0 °F 89% 29.50 in 10.0 mi NW 6.9 mph - 0.00 in   Overcast
8:18 AM 46.0 °F 41.4 °F 42.1 °F 86% 29.50 in 7.0 mi WNW 9.2 mph - 0.01 in Rain Light Rain
8:48 AM 44.6 °F 39.2 °F 41.0 °F 87% 29.49 in 7.0 mi WNW 10.4 mph - 0.02 in Rain Light Rain
8:52 AM 45.0 °F 39.7 °F 41.0 °F 86% 29.49 in 7.0 mi NW 10.4 mph - 0.02 in Rain Light Rain
9:48 AM 48.2 °F - 42.8 °F 82% 29.47 in 10.0 mi NW 8.1 mph - 0.01 in   Overcast
9:52 AM 48.0 °F - 43.0 °F 83% 29.48 in 10.0 mi WNW 10.4 mph - 0.01 in   Mostly Cloudy
10:52 AM 48.0 °F - 42.1 °F 80% 29.50 in 10.0 mi SW 3.5 mph - N/A   Overcast
11:38 AM 48.9 °F - 39.9 °F 71% 29.50 in 10.0 mi WNW 10.4 mph - N/A   Overcast
11:52 AM 50.0 °F - 39.9 °F 68% 29.50 in 10.0 mi NNW 11.5 mph - N/A   Overcast
1:52 PM 48.9 °F - 37.0 °F 64% 29.52 in 10.0 mi NNW 17.3 mph 24.2 mph 0.00 in   Overcast
2:52 PM 51.1 °F - 35.1 °F 54% 29.52 in 10.0 mi NNW 17.3 mph 28.8 mph 0.02 in   Overcast
3:52 PM 52.0 °F - 32.0 °F 47% 29.52 in 10.0 mi NNW 12.7 mph 31.1 mph 0.00 in   Overcast
4:52 PM 52.0 °F - 30.9 °F 45% 29.54 in 10.0 mi NNW 16.1 mph 29.9 mph N/A   Overcast
5:52 PM 50.0 °F - 32.0 °F 50% 29.57 in 10.0 mi NNW 18.4 mph 28.8 mph N/A   Overcast
6:52 PM 48.9 °F - 30.9 °F 50% 29.59 in 10.0 mi NW 20.7 mph 31.1 mph N/A   Overcast
7:52 PM 46.9 °F - 30.9 °F 54% 29.62 in 10.0 mi NW 21.9 mph 27.6 mph N/A   Overcast
8:52 PM 45.0 °F 38.2 °F 33.1 °F 63% 29.65 in 10.0 mi NW 15.0 mph 23.0 mph 0.00 in   Overcast
9:52 PM 44.1 °F 36.8 °F 30.9 °F 60% 29.67 in 10.0 mi NW 16.1 mph 24.2 mph N/A   Overcast
10:52 PM 44.1 °F 34.8 °F 28.9 °F 55% 29.68 in 10.0 mi NW 25.3 mph 32.2 mph N/A   Overcast
11:52 PM 44.1 °F 36.2 °F 28.0 °F 53% 29.69 in 10.0 mi NNW 18.4 mph 24.2 mph N/A   Overcast